Location: Alladorf
(49.9620°N, 11.3790°E)
Time: 21:24:56
(UTC+00:00)

Cosmos 2297 Rocket - Pass Details

Date: 29 November 2020
Orbit: 840 x 842 km, 71.0° (Epoch: 24 January)

Event Time Altitude Azimuth Distance (km) Brightness Sun altitude
Exits shadow 04:30:02 13° 343° (NNW) 2,231 4.2 -21.5°
Drops below altitude 10° 04:31:58 10° 3° (N) 2,474 4.6 -21.2°
Sets 04:35:46 0° 29° (NNE) 3,412 5.6 -20.6°
